DAL2168 KEYW-KATL

Flight info

Callsign DAL2168
Flight time N/A
Altitude 35000
Route BUFTT1 JAYMC Q110 DAWWN BEORN HOBTT3
Aircraft A319/M-SDE3FGHIRWY/LB1

Departure

Time 2026-05-06 23:10
Airport Key West International Airport (KEYW)

Arrival

Time N/A
Airport Hartsfield Jackson Atlanta International Airport (KATL)
Time Latitude Longitude Altitude Speed Heading
2026-05-06 22:44 24.55405 -81.75556 11 ft 0 kts 271°
2026-05-06 23:06 24.55406 -81.75562 11 ft 3 kts 278°
2026-05-06 23:06 24.55430 -81.75590 11 ft 6 kts 344°
2026-05-06 23:07 24.55483 -81.75588 11 ft 12 kts
2026-05-06 23:07 24.55530 -81.75652 11 ft 13 kts 269°
2026-05-06 23:07 24.55529 -81.75758 11 ft 14 kts 269°
2026-05-06 23:07 24.55528 -81.75870 11 ft 14 kts 269°
2026-05-06 23:08 24.55526 -81.75985 11 ft 15 kts 269°
2026-05-06 23:08 24.55525 -81.76106 11 ft 16 kts 269°
2026-05-06 23:08 24.55524 -81.76232 11 ft 16 kts 269°
2026-05-06 23:08 24.55523 -81.76360 11 ft 17 kts 269°
2026-05-06 23:09 24.55521 -81.76492 11 ft 17 kts 269°
2026-05-06 23:09 24.55522 -81.76626 11 ft 16 kts 287°
2026-05-06 23:09 24.55584 -81.76655 11 ft 7 kts
2026-05-06 23:09 24.55607 -81.76616 11 ft 4 kts 91°
2026-05-06 23:10 24.55607 -81.76452 11 ft 55 kts 89°
2026-05-06 23:10 24.55614 -81.75752 11 ft 124 kts 89°
2026-05-06 23:10 24.55628 -81.74605 141 ft 165 kts 89°
2026-05-06 23:10 24.55807 -81.73444 979 ft 149 kts 53°
2026-05-06 23:11 24.56602 -81.72779 1531 ft 159 kts 28°
2026-05-06 23:11 24.57733 -81.72221 1706 ft 191 kts 20°
2026-05-06 23:11 24.59093 -81.72055 2179 ft 205 kts 352°
2026-05-06 23:11 24.60544 -81.72351 2604 ft 221 kts 356°
2026-05-06 23:12 24.62147 -81.72254 3003 ft 240 kts
2026-05-06 23:12 24.63823 -81.71975 3706 ft 245 kts
2026-05-06 23:12 24.65495 -81.71684 4473 ft 247 kts
2026-05-06 23:12 24.67215 -81.71396 5227 ft 251 kts
2026-05-06 23:13 24.68940 -81.71119 5969 ft 254 kts
2026-05-06 23:13 24.70680 -81.70850 6712 ft 256 kts
2026-05-06 23:13 24.72466 -81.70579 7258 ft 267 kts
2026-05-06 23:13 24.74375 -81.70292 7752 ft 280 kts
2026-05-06 23:14 24.76307 -81.70005 8467 ft 282 kts
2026-05-06 23:14 24.78241 -81.69720 9209 ft 283 kts
2026-05-06 23:14 24.80193 -81.69434 9926 ft 284 kts
2026-05-06 23:14 24.82162 -81.69144 10523 ft 290 kts
2026-05-06 23:15 24.84209 -81.68842 10843 ft 306 kts
2026-05-06 23:15 24.86401 -81.68517 11145 ft 322 kts
2026-05-06 23:15 24.88670 -81.68182 11445 ft 337 kts
2026-05-06 23:15 24.91041 -81.67833 11939 ft 343 kts
2026-05-06 23:16 24.93404 -81.67487 12582 ft 345 kts
2026-05-06 23:16 24.95781 -81.67139 13215 ft 346 kts
2026-05-06 23:16 24.98177 -81.66785 13802 ft 348 kts
2026-05-06 23:16 25.00585 -81.66428 14346 ft 351 kts
2026-05-06 23:17 25.03001 -81.66069 14848 ft 354 kts
2026-05-06 23:17 25.05477 -81.65703 15348 ft 358 kts
2026-05-06 23:17 25.07938 -81.65340 15824 ft 361 kts
2026-05-06 23:17 25.10457 -81.64968 16308 ft 364 kts
2026-05-06 23:18 25.12974 -81.64597 16778 ft 367 kts
2026-05-06 23:18 25.15501 -81.64225 17233 ft 370 kts
2026-05-06 23:18 25.18055 -81.63849 17665 ft 373 kts
2026-05-06 23:18 25.20655 -81.63465 18094 ft 376 kts
2026-05-06 23:19 25.23274 -81.63079 18532 ft 379 kts
2026-05-06 23:19 25.25894 -81.62691 18973 ft 381 kts
2026-05-06 23:19 25.28518 -81.62304 19393 ft 383 kts
2026-05-06 23:19 25.31181 -81.61910 19818 ft 386 kts
2026-05-06 23:20 25.33827 -81.61518 20233 ft 388 kts
2026-05-06 23:20 25.36526 -81.61119 20639 ft 390 kts
2026-05-06 23:20 25.39210 -81.60723 21040 ft 393 kts
2026-05-06 23:20 25.41940 -81.60318 21426 ft 395 kts
2026-05-06 23:21 25.44691 -81.59911 21805 ft 398 kts
2026-05-06 23:21 25.47429 -81.59505 22195 ft 399 kts
2026-05-06 23:21 25.50192 -81.59095 22585 ft 401 kts
2026-05-06 23:21 25.52948 -81.58685 22961 ft 403 kts
2026-05-06 23:22 25.55769 -81.58266 23342 ft 406 kts
2026-05-06 23:22 25.58553 -81.57853 23706 ft 408 kts
2026-05-06 23:22 25.61400 -81.57430 24060 ft 410 kts
2026-05-06 23:22 25.64237 -81.57008 24417 ft 413 kts
2026-05-06 23:23 25.67084 -81.56585 24776 ft 415 kts
2026-05-06 23:23 25.69945 -81.56158 25118 ft 417 kts
2026-05-06 23:23 25.72845 -81.55727 25467 ft 420 kts
2026-05-06 23:23 25.75724 -81.55299 25804 ft 422 kts
2026-05-06 23:24 25.78670 -81.54859 26140 ft 424 kts
2026-05-06 23:24 25.81591 -81.54424 26460 ft 427 kts
2026-05-06 23:24 25.84563 -81.53980 26791 ft 429 kts
2026-05-06 23:24 25.87503 -81.53542 27117 ft 431 kts
2026-05-06 23:25 25.90521 -81.53091 27448 ft 434 kts
2026-05-06 23:25 25.93512 -81.52643 27772 ft 436 kts
2026-05-06 23:25 25.96521 -81.52193 28104 ft 437 kts
2026-05-06 23:25 25.99554 -81.51739 28424 ft 439 kts
2026-05-06 23:26 26.02582 -81.51286 28744 ft 441 kts
2026-05-06 23:26 26.05628 -81.50831 29044 ft 443 kts
2026-05-06 23:26 26.08711 -81.50369 29390 ft 444 kts
2026-05-06 23:26 26.11774 -81.49908 29805 ft 443 kts
2026-05-06 23:27 26.17863 -81.48992 30639 ft 440 kts
2026-05-06 23:27 26.23889 -81.48085 31445 ft 437 kts
2026-05-06 23:28 26.26910 -81.47631 31833 ft 436 kts
2026-05-06 23:28 26.29918 -81.47179 32212 ft 435 kts
2026-05-06 23:28 26.32922 -81.46726 32580 ft 433 kts
2026-05-06 23:28 26.35894 -81.46278 32946 ft 432 kts
2026-05-06 23:29 26.38855 -81.45832 33339 ft 431 kts
2026-05-06 23:29 26.41843 -81.45385 33653 ft 431 kts
2026-05-06 23:29 26.44808 -81.44939 33915 ft 432 kts
2026-05-06 23:29 26.47812 -81.44487 34161 ft 434 kts
2026-05-06 23:30 26.50790 -81.44039 34409 ft 435 kts
2026-05-06 23:30 26.53826 -81.43581 34651 ft 435 kts
2026-05-06 23:30 26.56833 -81.43126 34885 ft 436 kts
2026-05-06 23:30 26.59843 -81.42671 35020 ft 437 kts
2026-05-06 23:31 26.62857 -81.42214 35022 ft 438 kts
2026-05-06 23:31 26.68864 -81.41305 35028 ft 438 kts
2026-05-06 23:32 26.74909 -81.40390 35027 ft 437 kts
2026-05-06 23:32 26.80947 -81.39475 35030 ft 438 kts
2026-05-06 23:33 26.86005 -81.38707 35024 ft 438 kts
2026-05-06 23:33 26.93019 -81.38122 35027 ft 430 kts 352°
2026-05-06 23:34 26.97934 -81.38797 35028 ft 425 kts 343°
2026-05-06 23:34 27.04420 -81.41245 35025 ft 418 kts 330°
2026-05-06 23:35 27.09463 -81.44396 35026 ft 416 kts 326°
2026-05-06 23:35 27.14462 -81.47724 35030 ft 416 kts 326°
2026-05-06 23:36 27.19445 -81.51051 35028 ft 416 kts 326°
2026-05-06 23:36 27.24428 -81.54381 35030 ft 416 kts 326°
2026-05-06 23:37 27.29410 -81.57710 35030 ft 416 kts 326°
2026-05-06 23:37 27.34350 -81.61015 35030 ft 416 kts 325°
2026-05-06 23:38 27.39330 -81.64351 35032 ft 415 kts 325°
2026-05-06 23:38 27.44301 -81.67686 35032 ft 415 kts 325°
2026-05-06 23:39 27.49241 -81.71003 35031 ft 414 kts 325°
2026-05-06 23:39 27.54182 -81.74327 35031 ft 414 kts 325°
2026-05-06 23:40 27.59144 -81.77665 35032 ft 414 kts 325°